Hourly Data Report for April 18, 2021

MIRAMICHI RCS
NEW BRUNSWICK
Current Station Operator: ECCC - MSC

47°00'34.000" N
65°27'54.000" W
33.00 m
8100989
71744
ACQ

Download Data

Hourly Data (April 2021)
Hourly Data Report for April 18, 2021
TIME
LST
Temp Definition
°C
Dew Point Definition
°C
Rel Hum Definition
%
Precip. Amount Definition
mm

Wind Dir Definition
10's deg

Wind Spd Definition
km/h
Visibility Definition
km
Stn Press Definition
kPa
Hmdx Definition


Wind Chill Definition


Weather Definition


00:00 0.6 0.0 96 LegendMM 5 18   100.35     LegendNANA
01:00 0.8 0.2 96 LegendMM 3 17   100.29     LegendNANA
02:00 0.6 0.0 95 LegendMM 3 17   100.23     LegendNANA
03:00 0.7 0.2 97 LegendMM 4 16   100.21     LegendNANA
04:00 0.7 0.2 96 LegendMM 3 13   100.17     LegendNANA
05:00 0.6 0.1 96 LegendMM 2 13   100.16     LegendNANA
06:00 0.7 0.1 96 LegendMM 3 14   100.17     LegendNANA
07:00 0.8 0.2 96 LegendMM 2 14   100.18     LegendNANA
08:00 1.1 0.3 95 LegendMM 1 12   100.17     LegendNANA
09:00 1.6 0.7 94 LegendMM 1 13   100.15     LegendNANA
10:00 2.2 0.9 91 LegendMM 2 12   100.15     LegendNANA
11:00 3.0 1.4 89 LegendMM 2 16   100.11     LegendNANA
12:00 3.9 1.7 86 LegendMM 2 17   100.08     LegendNANA
13:00 4.2 1.8 84 LegendMM 2 16   100.05     LegendNANA
14:00 4.2 1.9 85 LegendMM 3 14   100.06     LegendNANA
15:00 4.6 1.9 82 LegendMM 2 15   100.04     LegendNANA
16:00 4.4 2.0 84 LegendMM 4 13   100.04     LegendNANA
17:00 5.0 2.3 83 LegendMM 3 8   100.03     LegendNANA
18:00 5.5 2.9 83 LegendMM 4 7   100.04     LegendNANA
19:00 4.5 2.7 88 LegendMM 4 11   100.08     LegendNANA
20:00 4.0 2.2 88 LegendMM 34 4   100.08     LegendNANA
21:00 3.8 2.3 90 LegendMM 31 4   100.11     LegendNANA
22:00 3.8 1.9 88 LegendMM 30 7   100.07     LegendNANA
23:00 3.9 2.1 88 LegendMM 30 8   100.05     LegendNANA

Notes on Data Quality.

Legend

  • E = Estimated
  • M = Missing
  • NA = Not Available*
  • [empty] = Indicates an unobserved value
Date modified: